This demonstration page uses our WeatherBlox Daily Observations layout. Learn more.

Hourly Observations for February 4, 2019

Temp ( °F °C ) Dew Point ( °F °C ) Humidity (%) Winds ( mph kmh ) Pressure ( in mb ) Visibility ( mi km ) Precip ( " mm )
12:15 am 00:15 Cloudy with Mist and Fog 26 -3.5 26 -3.5 100 100 N 17 28 29.79 1009 1.75 2.816345 0 0
12:35 am 00:35 Cloudy with Mist and Fog 25 -3.7 25 -3.7 100 100 N 20 31 29.81 1009 4 6.43736 0 0
12:55 am 00:55 Cloudy 24 -4.2 24 -4.2 100 100 N 18 30 29.84 1011 7 11.26538 0 0
1:15 am 01:15 Cloudy with Mist and Fog 23 -5 23 -5 100 100 N 22 35 29.87 1012 5 8.0467 0 0
1:35 am 01:35 Cloudy with Mist and Fog 22 -5.5 22 -5.5 100 100 N 20 31 29.9 1012 4 6.43736 0 0
1:55 am 01:55 Cloudy with Mist and Fog 21 -6 21 -6 100 100 N 20 31 29.89 1012 5 8.0467 0 0
2:15 am 02:15 Cloudy 20 -6.8 19 -7 98 98 N 25 41 29.9 1013 7 11.26538 0 0
2:35 am 02:35 Cloudy 19 -7.2 19 -7.4 98 98 N 20 31 29.94 1014 7 11.26538 0 0
2:55 am 02:55 Cloudy 19 -7.5 17 -8.3 94 94 N 20 31 29.96 1014 10 16.0934 0 0
3:15 am 03:15 Cloudy 18 -7.6 17 -8.6 93 93 N 16 26 29.98 1015 7 11.26538 0 0
3:35 am 03:35 Mostly Cloudy 17 -8.3 15 -9.5 91 91 N 15 24 30 1016 10 16.0934 0 0
3:55 am 03:55 Partly Cloudy 16 -8.8 13 -10.5 88 88 N 14 22 30.01 1016 10 16.0934 0 0
4:15 am 04:15 Clear 16 -9 13 -10.6 88 88 N 15 24 30.02 1017 10 16.0934 0 0
4:35 am 04:35 Partly Cloudy 16 -9.1 13 -10.6 89 89 N 17 28 30.03 1017 10 16.0934 0 0
4:55 am 04:55 Partly Cloudy 15 -9.4 12 -11 88 88 NNW 18 30 30.05 1018 10 16.0934 0 0
5:15 am 05:15 Partly Cloudy 15 -9.7 11 -11.9 84 84 N 22 35 30.06 1018 10 16.0934 0 0
5:35 am 05:35 Clear 14 -9.8 10 -12 84 84 N 20 31 30.05 1018 10 16.0934 0 0
5:55 am 05:55 Clear 13 -10.3 9 -12.6 83 83 N 22 35 30.08 1019 10 16.0934 0 0
6:15 am 06:15 Clear 13 -10.5 9 -13 82 82 N 22 35 30.09 1019 10 16.0934 0 0
6:35 am 06:35 Clear 12 -11 8 -13.3 83 83 N 18 30 30.1 1019 10 16.0934 0 0
6:55 am 06:55 Clear 12 -11.1 8 -13.5 83 83 N 16 26 30.12 1020 10 16.0934 0 0
7:15 am 07:15 Clear 12 -11.2 8 -13.5 83 83 N 15 24 30.14 1021 10 16.0934 0 0
7:35 am 07:35 Clear 12 -11.3 7 -13.7 83 83 N 17 28 30.15 1021 10 16.0934 0 0
7:55 am 07:55 Sunny 12 -11.2 8 -13.6 83 83 N 20 31 30.16 1021 10 16.0934 0 0
8:15 am 08:15 Sunny 12 -11.3 6 -14.5 77 77 N 16 26 30.18 1022 10 16.0934 0 0
8:35 am 08:35 Sunny 12 -11.2 5 -14.8 75 75 N 21 33 30.2 1023 10 16.0934 0 0
8:55 am 08:55 Sunny 12 -11.2 5 -15 74 74 N 13 20 30.21 1023 10 16.0934 0 0
9:15 am 09:15 Sunny 13 -10.6 7 -14.1 76 76 N 15 24 30.21 1023 10 16.0934 0 0
9:35 am 09:35 Sunny 13 -10.6 6 -14.3 75 75 N 16 26 30.21 1023 10 16.0934 0 0
9:55 am 09:55 Sunny 14 -10.1 7 -14 73 73 N 15 24 30.22 1023 10 16.0934 0 0
10:15 am 10:15 Sunny 14 -10 7 -13.9 73 73 N 12 19 30.21 1023 10 16.0934 0 0
10:35 am 10:35 Sunny 15 -9.5 8 -13.5 73 73 N 14 22 30.2 1023 10 16.0934 0 0
10:55 am 10:55 Sunny 15 -9.3 7 -13.8 70 70 N 15 24 30.21 1023 10 16.0934 0 0
11:15 am 11:15 Sunny 16 -9 8 -13.6 70 70 N 15 24 30.2 1023 10 16.0934 0 0
11:35 am 11:35 Sunny 17 -8.5 8 -13.2 69 69 N 15 24 30.2 1023 10 16.0934 0 0
11:55 am 11:55 Sunny 18 -7.6 9 -12.8 67 67 N 9 15 30.19 1022 10 16.0934 0 0
12:15 pm 12:15 Sunny 19 -7.2 10 -12.5 66 66 NNW 13 20 30.18 1022 10 16.0934 0 0
12:35 pm 12:35 Sunny 20 -6.6 10 -12.3 64 64 N 14 22 30.15 1021 10 16.0934 0 0
12:55 pm 12:55 Sunny 21 -6.3 10 -12.5 62 62 NNE 16 26 30.15 1021 10 16.0934 0 0
1:15 pm 13:15 Sunny 22 -5.7 10 -12 62 62 NNE 14 22 30.13 1020 10 16.0934 0 0
1:35 pm 13:35 Sunny 22 -5.3 10 -12.3 58 58 N 12 19 30.13 1020 10 16.0934 0 0
1:55 pm 13:55 Sunny 23 -5.1 9 -12.7 56 56 N 8 13 30.13 1020 10 16.0934 0 0
2:15 pm 14:15 Sunny 23 -5 9 -12.6 56 56 N 12 19 30.12 1020 10 16.0934 0 0
2:35 pm 14:35 Sunny 23 -4.9 9 -12.9 54 54 NNE 9 15 30.12 1020 10 16.0934 0 0
2:55 pm 14:55 Sunny 24 -4.6 9 -12.6 54 54 N 10 17 30.11 1020 10 16.0934 0 0
3:15 pm 15:15 Sunny 24 -4.4 10 -12.3 54 54 NNE 10 17 30.1 1019 10 16.0934 0 0
3:35 pm 15:35 Sunny 24 -4.5 9 -12.6 54 54 NE 10 17 30.1 1019 10 16.0934 0 0
3:55 pm 15:55 Sunny 25 -4.1 10 -12.2 54 54 NNE 9 15 30.09 1019 10 16.0934 0 0
4:15 pm 16:15 Sunny 23 -4.8 10 -12.1 57 57 NNE 13 20 30.1 1019 10 16.0934 0 0
4:35 pm 16:35 Sunny 23 -4.8 10 -12.1 57 57 NNE 13 20 30.11 1020 10 16.0934 0 0
4:55 pm 16:55 Sunny 23 -5.1 10 -12.4 57 57 NE 12 19 30.11 1020 10 16.0934 0 0
5:15 pm 17:15 Sunny 22 -5.5 10 -12.4 59 59 NE 13 20 30.12 1020 10 16.0934 0 0
5:35 pm 17:35 Sunny 22 -5.8 10 -12.1 61 61 NE 12 19 30.12 1020 10 16.0934 0 0
6:15 pm 18:15 Clear 21 -6.3 10 -12.2 63 63 NE 14 22 30.13 1020 10 16.0934 0 0
6:35 pm 18:35 Clear 20 -6.7 10 -12.5 64 64 NE 12 19 30.14 1021 10 16.0934 0 0
6:55 pm 18:55 Clear 19 -7 10 -12.4 66 66 ENE 12 19 30.14 1021 10 16.0934 0 0
7:15 pm 19:15 Clear 19 -7.3 9 -12.6 66 66 ENE 12 19 30.17 1022 10 16.0934 0 0
7:35 pm 19:35 Clear 18 -7.6 9 -13 66 66 NE 14 22 30.17 1022 10 16.0934 0 0
7:55 pm 19:55 Clear 18 -8 9 -13 68 68 ENE 12 19 30.17 1022 10 16.0934 0 0
8:15 pm 20:15 Clear 17 -8.2 8 -13.3 67 67 ENE 10 17 30.18 1022 10 16.0934 0 0
8:35 pm 20:35 Clear 17 -8.3 9 -13 69 69 ENE 12 19 30.17 1022 10 16.0934 0 0
8:55 pm 20:55 Clear 17 -8.5 8 -13.1 70 70 ENE 14 22 30.17 1022 10 16.0934 0 0
9:15 pm 21:15 Clear 16 -8.7 8 -13.5 69 69 ENE 16 26 30.17 1022 10 16.0934 0 0
9:35 pm 21:35 Clear 16 -9 8 -13.4 71 71 ENE 14 22 30.17 1022 10 16.0934 0 0
9:55 pm 21:55 Clear 15 -9.2 8 -13.6 71 71 ENE 14 22 30.19 1022 10 16.0934 0 0
10:15 pm 22:15 Clear 15 -9.5 7 -13.8 71 71 ENE 15 24 30.17 1022 10 16.0934 0 0
10:35 pm 22:35 Clear 15 -9.6 7 -13.7 72 72 ENE 15 24 30.17 1022 10 16.0934 0 0
10:55 pm 22:55 Clear 14 -9.8 7 -14 72 72 ENE 16 26 30.17 1022 10 16.0934 0 0
11:15 pm 23:15 Clear 14 -10 7 -14 73 73 ENE 14 22 30.18 1022 10 16.0934 0 0
11:35 pm 23:35 Clear 14 -10 7 -14 73 73 ENE 12 19 30.18 1022 10 16.0934 0 0
11:55 pm 23:55 Clear 14 -10.1 7 -13.9 74 74 ENE 14 22 30.19 1022 10 16.0934 0 0

Powered by AerisWeather